Flag for United Kingdom Weather past 2 weeks in Bath, England, United Kingdom

Now
52 °F

Rain. Partly sunny.


Feels Like: 46 °F
Forecast: 41 / 63 °F
Wind: 22 mph from Northeast

Location: Bristol / Lulsgate


UV Index: 3 (Moderate)

Visibility: 2 mi


Pressure: 29.59 "Hg

Humidity: 94%

Dew point: 50 °F

Location of BathLocation

Historic Weather in Bath

°F

Bath temperature yesterday

Maximum temperature yesterday: 52 °F (at 3:20 PM)
Minimum temperature yesterday: 34 °F (at 4:50 AM)
Average temperature yesterday: 45 °F

Past Weeks' High & Low Weather Summary

 TemperatureHumidityPressure
High59 °F (Apr 16, 3:50 PM)100% (Apr 5, 5:20 PM)30.42 "Hg (Apr 5, 5:20 PM)
Low34 °F (Apr 19, 4:50 AM)39% (Apr 16, 4:50 PM)29.62 "Hg (Apr 7, 2:20 PM)
Average48 °F82%30.11 "Hg
* Reported Apr 5 2:20 PM — Apr 20 2:50 PM, Bath, Weather by CustomWeather, © 2014

Note: Actual official high and low records may vary slightly from our data, if they occured in-between our weather recording intervals... More about our weather records

Advertising

Historic Weather Conditions — Data for Previous 24 hours

 ConditionsComfort  
Time TempWeatherWind HumidityBarometerVisibility
2:50 PM
Apr 20
50 °FFog.18 mph100%29.62 "Hg3 mi
2:20 PM50 °FFog.18 mph94%29.65 "Hg3 mi
1:50 PM48 °FRain. Fog.17 mph100%29.65 "Hg3 mi
1:20 PM48 °FScattered showers. Scattered clouds.18 mph94%29.65 "Hg4 mi
12:50 PM48 °FScattered showers. Scattered clouds.18 mph94%29.68 "Hg4 mi
12:20 PM46 °FLight rain. Partly sunny.18 mph93%29.68 "Hg2 mi
11:50 AM46 °FPartly sunny.16 mph87%29.71 "Hg3 mi
11:20 AM45 °FPartly sunny.20 mph93%29.71 "Hg2 mi
10:50 AM45 °FLow clouds.23 mph93%29.71 "Hg1 mi
10:20 AM45 °FFog.21 mph93%29.74 "Hg1 mi
9:50 AM45 °FFog.22 mph93%29.74 "Hg1 mi
9:20 AM43 °FFog.21 mph100%29.74 "Hg1 mi
8:50 AM43 °FFog.21 mph100%29.77 "Hg1 mi
8:20 AM43 °FFog.22 mph100%29.77 "Hg1 mi
7:50 AM43 °FFog.20 mph93%29.80 "Hg1 mi
7:20 AM41 °FFog.18 mph100%29.80 "Hg1 mi
6:50 AM41 °FFog.18 mph100%29.80 "Hg2 mi
6:20 AM41 °FFog.20 mph100%29.83 "Hg1 mi
5:50 AM41 °FFog.17 mph100%29.83 "Hg2 mi
5:20 AM41 °FFog.17 mph100%29.83 "Hg2 mi
4:50 AM41 °FFog.15 mph93%29.86 "Hg2 mi
4:20 AM39 °FFog.15 mph100%29.86 "Hg2 mi
3:50 AM39 °FPassing clouds.12 mph100%29.89 "Hg5 mi
3:20 AM41 °FClear.9 mph93%29.89 "Hg10 mi
2:50 AM41 °FClear.10 mph93%29.92 "Hg10 mi
2:20 AM41 °FClear.12 mph93%29.92 "Hg10 mi
1:50 AM43 °FClear.10 mph87%29.92 "Hg10 mi
1:20 AM43 °FClear.9 mph87%29.95 "Hg10 mi
12:50 AM43 °FClear.12 mph81%29.95 "Hg10 mi
12:20 AM45 °FClear.13 mph76%29.95 "Hg10 mi
11:50 PM
Apr 19
45 °FClear.15 mph76%29.98 "Hg10 mi
11:20 PM45 °FPassing clouds.12 mph76%29.98 "HgN/A
10:50 PM46 °FPassing clouds.13 mph66%29.98 "HgN/A
10:20 PM46 °FClear.14 mph66%29.98 "Hg10 mi
9:50 PM46 °FClear.12 mph66%29.98 "Hg10 mi
9:20 PM48 °FClear.12 mph62%29.98 "Hg10 mi
8:50 PM48 °FSunny.8 mph66%29.98 "Hg10 mi
8:20 PM48 °FPassing clouds.10 mph66%29.98 "HgN/A
7:50 PM50 °FPassing clouds.15 mph58%29.98 "HgN/A
7:20 PM50 °FPassing clouds.13 mph58%29.98 "HgN/A
6:50 PM50 °FPassing clouds.13 mph58%29.98 "HgN/A
6:20 PM52 °FPassing clouds.14 mph54%29.98 "HgN/A
5:50 PM50 °FPassing clouds.14 mph58%30.01 "HgN/A
5:20 PM52 °FPassing clouds.12 mph54%30.01 "HgN/A
4:50 PM52 °FPassing clouds.13 mph54%30.01 "HgN/A
4:20 PM52 °FScattered clouds.13 mph54%30.01 "HgN/A
3:50 PM52 °FPassing clouds.12 mph54%30.04 "HgN/A
3:20 PM52 °FScattered clouds.10 mph54%30.04 "HgN/A
Weather by CustomWeather, © 2014

See weather overview